Netzbetreibername:;SW Malchow;;
Netz- oder Umspannebene:;Niederspannung NS;;
Lastgangtyp:;Summe aller Einspeisungen;;
gesetzliche Grundlage:;� 17 Abs. 2 Nr. 6 StromNZV;;
Einheit:;kW;;
Betrachtungszeitraum:;01.01.2018;31.12.2018;
;;;
Datum;von;bis;Wert
01.01.2018;00:00;00:15;7
01.01.2018;00:15;00:30;7
01.01.2018;00:30;00:45;7
01.01.2018;00:45;01:00;7
01.01.2018;01:00;01:15;7
01.01.2018;01:15;01:30;7
01.01.2018;01:30;01:45;7
01.01.2018;01:45;02:00;7
01.01.2018;02:00;02:15;7
01.01.2018;02:15;02:30;7
01.01.2018;02:30;02:45;7
01.01.2018;02:45;03:00;7
01.01.2018;03:00;03:15;7
01.01.2018;03:15;03:30;7
01.01.2018;03:30;03:45;7
01.01.2018;03:45;04:00;7
01.01.2018;04:00;04:15;7
01.01.2018;04:15;04:30;7
01.01.2018;04:30;04:45;7
01.01.2018;04:45;05:00;7
01.01.2018;05:00;05:15;7
01.01.2018;05:15;05:30;7
01.01.2018;05:30;05:45;7
01.01.2018;05:45;06:00;7
01.01.2018;06:00;06:15;7
01.01.2018;06:15;06:30;7
01.01.2018;06:30;06:45;7
01.01.2018;06:45;07:00;16
01.01.2018;07:00;07:15;16
01.01.2018;07:15;07:30;16
01.01.2018;07:30;07:45;16
01.01.2018;07:45;08:00;16
01.01.2018;08:00;08:15;16
01.01.2018;08:15;08:30;16
01.01.2018;08:30;08:45;16
01.01.2018;08:45;09:00;16
01.01.2018;09:00;09:15;18
01.01.2018;09:15;09:30;18
01.01.2018;09:30;09:45;22
01.01.2018;09:45;10:00;31
01.01.2018;10:00;10:15;62
01.01.2018;10:15;10:30;90
01.01.2018;10:30;10:45;195
01.01.2018;10:45;11:00;180
01.01.2018;11:00;11:15;111
01.01.2018;11:15;11:30;43
01.01.2018;11:30;11:45;184
01.01.2018;11:45;12:00;253
01.01.2018;12:00;12:15;225
01.01.2018;12:15;12:30;288
01.01.2018;12:30;12:45;285
01.01.2018;12:45;13:00;266
01.01.2018;13:00;13:15;164
01.01.2018;13:15;13:30;195
01.01.2018;13:30;13:45;211
01.01.2018;13:45;14:00;217
01.01.2018;14:00;14:15;195
01.01.2018;14:15;14:30;188
01.01.2018;14:30;14:45;143
01.01.2018;14:45;15:00;108
01.01.2018;15:00;15:15;81
01.01.2018;15:15;15:30;42
01.01.2018;15:30;15:45;29
01.01.2018;15:45;16:00;19
01.01.2018;16:00;16:15;16
01.01.2018;16:15;16:30;16
01.01.2018;16:30;16:45;16
01.01.2018;16:45;17:00;16
01.01.2018;17:00;17:15;16
01.01.2018;17:15;17:30;16
01.01.2018;17:30;17:45;16
01.01.2018;17:45;18:00;16
01.01.2018;18:00;18:15;16
01.01.2018;18:15;18:30;16
01.01.2018;18:30;18:45;16
01.01.2018;18:45;19:00;16
01.01.2018;19:00;19:15;7
01.01.2018;19:15;19:30;7
01.01.2018;19:30;19:45;7
01.01.2018;19:45;20:00;7
01.01.2018;20:00;20:15;7
01.01.2018;20:15;20:30;7
01.01.2018;20:30;20:45;7
01.01.2018;20:45;21:00;7
01.01.2018;21:00;21:15;7
01.01.2018;21:15;21:30;7
01.01.2018;21:30;21:45;7
01.01.2018;21:45;22:00;7
01.01.2018;22:00;22:15;7
01.01.2018;22:15;22:30;7
01.01.2018;22:30;22:45;7
01.01.2018;22:45;23:00;7
01.01.2018;23:00;23:15;7
01.01.2018;23:15;23:30;7
01.01.2018;23:30;23:45;7
02.01.2018;23:45;00:00;7
02.01.2018;00:00;00:15;7
02.01.2018;00:15;00:30;7
02.01.2018;00:30;00:45;7
02.01.2018;00:45;01:00;7
02.01.2018;01:00;01:15;7
02.01.2018;01:15;01:30;6,514805989
02.01.2018;01:30;01:45;6,514805989
02.01.2018;01:45;02:00;6,514805989
02.01.2018;02:00;02:15;6,514805989
02.01.2018;02:15;02:30;6,514805989
02.01.2018;02:30;02:45;6,514805989
02.01.2018;02:45;03:00;6,514805989
02.01.2018;03:00;03:15;6,514805989
02.01.2018;03:15;03:30;6,514805989
02.01.2018;03:30;03:45;6,514805989
02.01.2018;03:45;04:00;6,514805989
02.01.2018;04:00;04:15;6,514805989
02.01.2018;04:15;04:30;6,514805989
02.01.2018;04:30;04:45;6,514805989
02.01.2018;04:45;05:00;6,514805989
02.01.2018;05:00;05:15;7
02.01.2018;05:15;05:30;7
02.01.2018;05:30;05:45;7
02.01.2018;05:45;06:00;7
02.01.2018;06:00;06:15;7
02.01.2018;06:15;06:30;7
02.01.2018;06:30;06:45;7
02.01.2018;06:45;07:00;16
02.01.2018;07:00;07:15;16
02.01.2018;07:15;07:30;16
02.01.2018;07:30;07:45;16
02.01.2018;07:45;08:00;16
02.01.2018;08:00;08:15;16
02.01.2018;08:15;08:30;16
02.01.2018;08:30;08:45;17
02.01.2018;08:45;09:00;24
02.01.2018;09:00;09:15;27
02.01.2018;09:15;09:30;29
02.01.2018;09:30;09:45;38
02.01.2018;09:45;10:00;42
02.01.2018;10:00;10:15;41
02.01.2018;10:15;10:30;46
02.01.2018;10:30;10:45;49
02.01.2018;10:45;11:00;38
02.01.2018;11:00;11:15;41
02.01.2018;11:15;11:30;38
02.01.2018;11:30;11:45;48
02.01.2018;11:45;12:00;49
02.01.2018;12:00;12:15;56
02.01.2018;12:15;12:30;39
02.01.2018;12:30;12:45;27
02.01.2018;12:45;13:00;32
02.01.2018;13:00;13:15;22
02.01.2018;13:15;13:30;37
02.01.2018;13:30;13:45;77
02.01.2018;13:45;14:00;74
02.01.2018;14:00;14:15;82
02.01.2018;14:15;14:30;61
02.01.2018;14:30;14:45;83
02.01.2018;14:45;15:00;53
02.01.2018;15:00;15:15;25
02.01.2018;15:15;15:30;20
02.01.2018;15:30;15:45;19
02.01.2018;15:45;16:00;17
02.01.2018;16:00;16:15;16
02.01.2018;16:15;16:30;16
02.01.2018;16:30;16:45;16
02.01.2018;16:45;17:00;16
02.01.2018;17:00;17:15;16
02.01.2018;17:15;17:30;16
02.01.2018;17:30;17:45;16
02.01.2018;17:45;18:00;16
02.01.2018;18:00;18:15;16
02.01.2018;18:15;18:30;16
02.01.2018;18:30;18:45;16
02.01.2018;18:45;19:00;16
02.01.2018;19:00;19:15;7
02.01.2018;19:15;19:30;7
02.01.2018;19:30;19:45;7
02.01.2018;19:45;20:00;7
02.01.2018;20:00;20:15;7
02.01.2018;20:15;20:30;7
02.01.2018;20:30;20:45;7
02.01.2018;20:45;21:00;7
02.01.2018;21:00;21:15;7
02.01.2018;21:15;21:30;7
02.01.2018;21:30;21:45;7
02.01.2018;21:45;22:00;7
02.01.2018;22:00;22:15;7
02.01.2018;22:15;22:30;7
02.01.2018;22:30;22:45;7
02.01.2018;22:45;23:00;7
02.01.2018;23:00;23:15;7
02.01.2018;23:15;23:30;7
02.01.2018;23:30;23:45;7
03.01.2018;23:45;00:00;7
03.01.2018;00:00;00:15;7
03.01.2018;00:15;00:30;7
03.01.2018;00:30;00:45;7
03.01.2018;00:45;01:00;7
03.01.2018;01:00;01:15;7
03.01.2018;01:15;01:30;7
03.01.2018;01:30;01:45;7
03.01.2018;01:45;02:00;7
03.01.2018;02:00;02:15;7
03.01.2018;02:15;02:30;7
03.01.2018;02:30;02:45;7
03.01.2018;02:45;03:00;7
03.01.2018;03:00;03:15;7
03.01.2018;03:15;03:30;6,514805989
03.01.2018;03:30;03:45;6,514805989
03.01.2018;03:45;04:00;6,514805989
03.01.2018;04:00;04:15;6,514805989
03.01.2018;04:15;04:30;6,514805989
03.01.2018;04:30;04:45;7
03.01.2018;04:45;05:00;7
03.01.2018;05:00;05:15;7
03.01.2018;05:15;05:30;7
03.01.2018;05:30;05:45;7
03.01.2018;05:45;06:00;7
03.01.2018;06:00;06:15;7
03.01.2018;06:15;06:30;7
03.01.2018;06:30;06:45;7
03.01.2018;06:45;07:00;16
03.01.2018;07:00;07:15;16
03.01.2018;07:15;07:30;16
03.01.2018;07:30;07:45;16
03.01.2018;07:45;08:00;16
03.01.2018;08:00;08:15;16
03.01.2018;08:15;08:30;16
03.01.2018;08:30;08:45;16
03.01.2018;08:45;09:00;16
03.01.2018;09:00;09:15;16
03.01.2018;09:15;09:30;16
03.01.2018;09:30;09:45;17
03.01.2018;09:45;10:00;16
03.01.2018;10:00;10:15;19
03.01.2018;10:15;10:30;31
03.01.2018;10:30;10:45;25
03.01.2018;10:45;11:00;31
03.01.2018;11:00;11:15;38
03.01.2018;11:15;11:30;85
03.01.2018;11:30;11:45;60
03.01.2018;11:45;12:00;44
03.01.2018;12:00;12:15;31
03.01.2018;12:15;12:30;29
03.01.2018;12:30;12:45;35
03.01.2018;12:45;13:00;45
03.01.2018;13:00;13:15;31
03.01.2018;13:15;13:30;29
03.01.2018;13:30;13:45;27
03.01.2018;13:45;14:00;23
03.01.2018;14:00;14:15;24
03.01.2018;14:15;14:30;27
03.01.2018;14:30;14:45;97
03.01.2018;14:45;15:00;94
03.01.2018;15:00;15:15;30
03.01.2018;15:15;15:30;17
03.01.2018;15:30;15:45;16
03.01.2018;15:45;16:00;16
03.01.2018;16:00;16:15;16
03.01.2018;16:15;16:30;16
03.01.2018;16:30;16:45;16
03.01.2018;16:45;17:00;16
03.01.2018;17:00;17:15;16
03.01.2018;17:15;17:30;16
03.01.2018;17:30;17:45;16
03.01.2018;17:45;18:00;16
03.01.2018;18:00;18:15;16
03.01.2018;18:15;18:30;16
03.01.2018;18:30;18:45;16
03.01.2018;18:45;19:00;16
03.01.2018;19:00;19:15;7
03.01.2018;19:15;19:30;7
03.01.2018;19:30;19:45;7
03.01.2018;19:45;20:00;7
03.01.2018;20:00;20:15;7
03.01.2018;20:15;20:30;7
03.01.2018;20:30;20:45;7
03.01.2018;20:45;21:00;7
03.01.2018;21:00;21:15;7
03.01.2018;21:15;21:30;7
03.01.2018;21:30;21:45;7
03.01.2018;21:45;22:00;7
03.01.2018;22:00;22:15;7
03.01.2018;22:15;22:30;7
03.01.2018;22:30;22:45;7
03.01.2018;22:45;23:00;7
03.01.2018;23:00;23:15;7
03.01.2018;23:15;23:30;7
03.01.2018;23:30;23:45;7
04.01.2018;23:45;00:00;7
04.01.2018;00:00;00:15;7
04.01.2018;00:15;00:30;7
04.01.2018;00:30;00:45;7
04.01.2018;00:45;01:00;7
04.01.2018;01:00;01:15;7
04.01.2018;01:15;01:30;7
04.01.2018;01:30;01:45;7
04.01.2018;01:45;02:00;7
04.01.2018;02:00;02:15;7
04.01.2018;02:15;02:30;7
04.01.2018;02:30;02:45;7
04.01.2018;02:45;03:00;7
04.01.2018;03:00;03:15;7
04.01.2018;03:15;03:30;7
04.01.2018;03:30;03:45;7
04.01.2018;03:45;04:00;7
04.01.2018;04:00;04:15;7
04.01.2018;04:15;04:30;7
04.01.2018;04:30;04:45;7
04.01.2018;04:45;05:00;7
04.01.2018;05:00;05:15;7
04.01.2018;05:15;05:30;7
04.01.2018;05:30;05:45;7
04.01.2018;05:45;06:00;7
04.01.2018;06:00;06:15;7
04.01.2018;06:15;06:30;7
04.01.2018;06:30;06:45;7
04.01.2018;06:45;07:00;16
04.01.2018;07:00;07:15;16
04.01.2018;07:15;07:30;16
04.01.2018;07:30;07:45;16
04.01.2018;07:45;08:00;16
04.01.2018;08:00;08:15;16
04.01.2018;08:15;08:30;16
04.01.2018;08:30;08:45;16
04.01.2018;08:45;09:00;17
04.01.2018;09:00;09:15;18
04.01.2018;09:15;09:30;19
04.01.2018;09:30;09:45;22
04.01.2018;09:45;10:00;27
04.01.2018;10:00;10:15;40
04.01.2018;10:15;10:30;34
04.01.2018;10:30;10:45;30
04.01.2018;10:45;11:00;39
04.01.2018;11:00;11:15;50
04.01.2018;11:15;11:30;44
04.01.2018;11:30;11:45;50
04.01.2018;11:45;12:00;49
04.01.2018;12:00;12:15;30
04.01.2018;12:15;12:30;37
04.01.2018;12:30;12:45;39
04.01.2018;12:45;13:00;47
04.01.2018;13:00;13:15;44
04.01.2018;13:15;13:30;25
04.01.2018;13:30;13:45;29
04.01.2018;13:45;14:00;34
04.01.2018;14:00;14:15;24
04.01.2018;14:15;14:30;23
04.01.2018;14:30;14:45;26
04.01.2018;14:45;15:00;21
04.01.2018;15:00;15:15;21
04.01.2018;15:15;15:30;18
04.01.2018;15:30;15:45;19
04.01.2018;15:45;16:00;18
04.01.2018;16:00;16:15;16
04.01.2018;16:15;16:30;16
04.01.2018;16:30;16:45;16
04.01.2018;16:45;17:00;16
04.01.2018;17:00;17:15;16
04.01.2018;17:15;17:30;16
04.01.2018;17:30;17:45;16
04.01.2018;17:45;18:00;16
04.01.2018;18:00;18:15;16
04.01.2018;18:15;18:30;16
04.01.2018;18:30;18:45;16
04.01.2018;18:45;19:00;16
04.01.2018;19:00;19:15;7
04.01.2018;19:15;19:30;7
04.01.2018;19:30;19:45;7
04.01.2018;19:45;20:00;7
04.01.2018;20:00;20:15;7
04.01.2018;20:15;20:30;7
04.01.2018;20:30;20:45;7
04.01.2018;20:45;21:00;7
04.01.2018;21:00;21:15;7
04.01.2018;21:15;21:30;7
04.01.2018;21:30;21:45;7
04.01.2018;21:45;22:00;7
04.01.2018;22:00;22:15;7
04.01.2018;22:15;22:30;7
04.01.2018;22:30;22:45;7
04.01.2018;22:45;23:00;7
04.01.2018;23:00;23:15;7
04.01.2018;23:15;23:30;7
04.01.2018;23:30;23:45;7
05.01.2018;23:45;00:00;7
05.01.2018;00:00;00:15;7
05.01.2018;00:15;00:30;7
05.01.2018;00:30;00:45;7
05.01.2018;00:45;01:00;7
05.01.2018;01:00;01:15;7
05.01.2018;01:15;01:30;7
05.01.2018;01:30;01:45;7
05.01.2018;01:45;02:00;7
05.01.2018;02:00;02:15;7
05.01.2018;02:15;02:30;7
05.01.2018;02:30;02:45;7
05.01.2018;02:45;03:00;7
05.01.2018;03:00;03:15;7
05.01.2018;03:15;03:30;7
05.01.2018;03:30;03:45;7
05.01.2018;03:45;04:00;7
05.01.2018;04:00;04:15;7
05.01.2018;04:15;04:30;7
05.01.2018;04:30;04:45;7
05.01.2018;04:45;05:00;7
05.01.2018;05:00;05:15;7
05.01.2018;05:15;05:30;7
05.01.2018;05:30;05:45;7
05.01.2018;05:45;06:00;7
05.01.2018;06:00;06:15;7
05.01.2018;06:15;06:30;7
05.01.2018;06:30;06:45;7
05.01.2018;06:45;07:00;16
05.01.2018;07:00;07:15;16
05.01.2018;07:15;07:30;16
05.01.2018;07:30;07:45;16
05.01.2018;07:45;08:00;16
05.01.2018;08:00;08:15;16
05.01.2018;08:15;08:30;16
05.01.2018;08:30;08:45;17
05.01.2018;08:45;09:00;18
05.01.2018;09:00;09:15;26
05.01.2018;09:15;09:30;42
05.01.2018;09:30;09:45;66
05.01.2018;09:45;10:00;123
05.01.2018;10:00;10:15;109
05.01.2018;10:15;10:30;57
05.01.2018;10:30;10:45;55
05.01.2018;10:45;11:00;84
05.01.2018;11:00;11:15;43
05.01.2018;11:15;11:30;59
05.01.2018;11:30;11:45;88
05.01.2018;11:45;12:00;45
05.01.2018;12:00;12:15;42
05.01.2018;12:15;12:30;33
05.01.2018;12:30;12:45;26
05.01.2018;12:45;13:00;26
05.01.2018;13:00;13:15;25
05.01.2018;13:15;13:30;23
05.01.2018;13:30;13:45;21
05.01.2018;13:45;14:00;33
05.01.2018;14:00;14:15;40
05.01.2018;14:15;14:30;39
05.01.2018;14:30;14:45;29
05.01.2018;14:45;15:00;27
05.01.2018;15:00;15:15;20
05.01.2018;15:15;15:30;17
05.01.2018;15:30;15:45;16
05.01.2018;15:45;16:00;16
05.01.2018;16:00;16:15;16
05.01.2018;16:15;16:30;16
05.01.2018;16:30;16:45;16
05.01.2018;16:45;17:00;16
05.01.2018;17:00;17:15;16
05.01.2018;17:15;17:30;16
05.01.2018;17:30;17:45;16
05.01.2018;17:45;18:00;16
05.01.2018;18:00;18:15;16
05.01.2018;18:15;18:30;16
05.01.2018;18:30;18:45;16
05.01.2018;18:45;19:00;16
05.01.2018;19:00;19:15;7
05.01.2018;19:15;19:30;7
05.01.2018;19:30;19:45;7
05.01.2018;19:45;20:00;7
05.01.2018;20:00;20:15;7
05.01.2018;20:15;20:30;7
05.01.2018;20:30;20:45;7
05.01.2018;20:45;21:00;7
05.01.2018;21:00;21:15;7
05.01.2018;21:15;21:30;7
05.01.2018;21:30;21:45;7
05.01.2018;21:45;22:00;7
05.01.2018;22:00;22:15;7
05.01.2018;22:15;22:30;7
05.01.2018;22:30;22:45;7
05.01.2018;22:45;23:00;7
05.01.2018;23:00;23:15;7
05.01.2018;23:15;23:30;7
05.01.2018;23:30;23:45;7
06.01.2018;23:45;00:00;7
06.01.2018;00:00;00:15;7
06.01.2018;00:15;00:30;7
06.01.2018;00:30;00:45;7
06.01.2018;00:45;01:00;7
06.01.2018;01:00;01:15;7
06.01.2018;01:15;01:30;7
06.01.2018;01:30;01:45;7
06.01.2018;01:45;02:00;7
06.01.2018;02:00;02:15;7
06.01.2018;02:15;02:30;7
06.01.2018;02:30;02:45;7
06.01.2018;02:45;03:00;7
06.01.2018;03:00;03:15;7
06.01.2018;03:15;03:30;7
06.01.2018;03:30;03:45;7
06.01.2018;03:45;04:00;7
06.01.2018;04:00;04:15;7
06.01.2018;04:15;04:30;7
06.01.2018;04:30;04:45;7
06.01.2018;04:45;05:00;7
06.01.2018;05:00;05:15;7
06.01.2018;05:15;05:30;7
06.01.2018;05:30;05:45;7
06.01.2018;05:45;06:00;7
06.01.2018;06:00;06:15;7
06.01.2018;06:15;06:30;7
06.01.2018;06:30;06:45;7
06.01.2018;06:45;07:00;16
06.01.2018;07:00;07:15;16
06.01.2018;07:15;07:30;16
06.01.2018;07:30;07:45;16
06.01.2018;07:45;08:00;16
06.01.2018;08:00;08:15;16
06.01.2018;08:15;08:30;16
06.01.2018;08:30;08:45;17
06.01.2018;08:45;09:00;19
06.01.2018;09:00;09:15;22
06.01.2018;09:15;09:30;25
06.01.2018;09:30;09:45;23
06.01.2018;09:45;10:00;20
06.01.2018;10:00;10:15;31
06.01.2018;10:15;10:30;60
06.01.2018;10:30;10:45;64
06.01.2018;10:45;11:00;94
06.01.2018;11:00;11:15;113
06.01.2018;11:15;11:30;105
06.01.2018;11:30;11:45;154
06.01.2018;11:45;12:00;235
06.01.2018;12:00;12:15;169
06.01.2018;12:15;12:30;135
06.01.2018;12:30;12:45;96
06.01.2018;12:45;13:00;71
06.01.2018;13:00;13:15;65
06.01.2018;13:15;13:30;49
06.01.2018;13:30;13:45;42
06.01.2018;13:45;14:00;60
06.01.2018;14:00;14:15;56
06.01.2018;14:15;14:30;50
06.01.2018;14:30;14:45;34
06.01.2018;14:45;15:00;29
06.01.2018;15:00;15:15;24
06.01.2018;15:15;15:30;20
06.01.2018;15:30;15:45;21
06.01.2018;15:45;16:00;17
06.01.2018;16:00;16:15;16
06.01.2018;16:15;16:30;16
06.01.2018;16:30;16:45;16
06.01.2018;16:45;17:00;16
06.01.2018;17:00;17:15;16
06.01.2018;17:15;17:30;16
06.01.2018;17:30;17:45;16
06.01.2018;17:45;18:00;16
06.01.2018;18:00;18:15;16
06.01.2018;18:15;18:30;16
06.01.2018;18:30;18:45;16
06.01.2018;18:45;19:00;16
06.01.2018;19:00;19:15;7
06.01.2018;19:15;19:30;7
06.01.2018;19:30;19:45;7
06.01.2018;19:45;20:00;7
06.01.2018;20:00;20:15;7
06.01.2018;20:15;20:30;7
06.01.2018;20:30;20:45;7
06.01.2018;20:45;21:00;7
06.01.2018;21:00;21:15;7
06.01.2018;21:15;21:30;7
06.01.2018;21:30;21:45;7
06.01.2018;21:45;22:00;7
06.01.2018;22:00;22:15;7
06.01.2018;22:15;22:30;7
06.01.2018;22:30;22:45;7
06.01.2018;22:45;23:00;7
06.01.2018;23:00;23:15;7
06.01.2018;23:15;23:30;7
06.01.2018;23:30;23:45;7
07.01.2018;23:45;00:00;7
07.01.2018;00:00;00:15;7
07.01.2018;00:15;00:30;7
07.01.2018;00:30;00:45;7
07.01.2018;00:45;01:00;7
07.01.2018;01:00;01:15;7
07.01.2018;01:15;01:30;7
07.01.2018;01:30;01:45;7
07.01.2018;01:45;02:00;7
07.01.2018;02:00;02:15;7
07.01.2018;02:15;02:30;7
07.01.2018;02:30;02:45;7
07.01.2018;02:45;03:00;7
07.01.2018;03:00;03:15;7
07.01.2018;03:15;03:30;7
07.01.2018;03:30;03:45;7
07.01.2018;03:45;04:00;7
07.01.2018;04:00;04:15;7
07.01.2018;04:15;04:30;7
07.01.2018;04:30;04:45;7
07.01.2018;04:45;05:00;7
07.01.2018;05:00;05:15;7
07.01.2018;05:15;05:30;7
07.01.2018;05:30;05:45;7
07.01.2018;05:45;06:00;7
07.01.2018;06:00;06:15;7
07.01.2018;06:15;06:30;7
07.01.2018;06:30;06:45;7
07.01.2018;06:45;07:00;16
07.01.2018;07:00;07:15;16
07.01.2018;07:15;07:30;16
07.01.2018;07:30;07:45;16
07.01.2018;07:45;08:00;16
07.01.2018;08:00;08:15;16
07.01.2018;08:15;08:30;16
07.01.2018;08:30;08:45;16
07.01.2018;08:45;09:00;20
07.01.2018;09:00;09:15;25
07.01.2018;09:15;09:30;34
07.01.2018;09:30;09:45;42
07.01.2018;09:45;10:00;56
07.01.2018;10:00;10:15;72
07.01.2018;10:15;10:30;88
07.01.2018;10:30;10:45;102
07.01.2018;10:45;11:00;130
07.01.2018;11:00;11:15;100
07.01.2018;11:15;11:30;109
07.01.2018;11:30;11:45;119
07.01.2018;11:45;12:00;132
07.01.2018;12:00;12:15;147
07.01.2018;12:15;12:30;163
07.01.2018;12:30;12:45;162
07.01.2018;12:45;13:00;128
07.01.2018;13:00;13:15;137
07.01.2018;13:15;13:30;122
07.01.2018;13:30;13:45;147
07.01.2018;13:45;14:00;257
07.01.2018;14:00;14:15;250
07.01.2018;14:15;14:30;221
07.01.2018;14:30;14:45;179
07.01.2018;14:45;15:00;144
07.01.2018;15:00;15:15;108
07.01.2018;15:15;15:30;75
07.01.2018;15:30;15:45;48
07.01.2018;15:45;16:00;26
07.01.2018;16:00;16:15;18
07.01.2018;16:15;16:30;16
07.01.2018;16:30;16:45;16
07.01.2018;16:45;17:00;16
07.01.2018;17:00;17:15;16
07.01.2018;17:15;17:30;16
07.01.2018;17:30;17:45;16
07.01.2018;17:45;18:00;16
07.01.2018;18:00;18:15;16
07.01.2018;18:15;18:30;16
07.01.2018;18:30;18:45;16
07.01.2018;18:45;19:00;16
07.01.2018;19:00;19:15;7
07.01.2018;19:15;19:30;7
07.01.2018;19:30;19:45;7
07.01.2018;19:45;20:00;7
07.01.2018;20:00;20:15;7
07.01.2018;20:15;20:30;7
07.01.2018;20:30;20:45;7
07.01.2018;20:45;21:00;7
07.01.2018;21:00;21:15;7
07.01.2018;21:15;21:30;7
07.01.2018;21:30;21:45;7
07.01.2018;21:45;22:00;7
07.01.2018;22:00;22:15;7
07.01.2018;22:15;22:30;7
07.01.2018;22:30;22:45;7
07.01.2018;22:45;23:00;7
07.01.2018;23:00;23:15;7
07.01.2018;23:15;23:30;7
07.01.2018;23:30;23:45;7
08.01.2018;23:45;00:00;7
08.01.2018;00:00;00:15;7
08.01.2018;00:15;00:30;7
08.01.2018;00:30;00:45;7
08.01.2018;00:45;01:00;7
08.01.2018;01:00;01:15;7
08.01.2018;01:15;01:30;7
08.01.2018;01:30;01:45;7
08.01.2018;01:45;02:00;7
08.01.2018;02:00;02:15;7
08.01.2018;02:15;02:30;7
08.01.2018;02:30;02:45;7
08.01.2018;02:45;03:00;7
08.01.2018;03:00;03:15;7
08.01.2018;03:15;03:30;7
08.01.2018;03:30;03:45;7
08.01.2018;03:45;04:00;7
08.01.2018;04:00;04:15;7
08.01.2018;04:15;04:30;7
08.01.2018;04:30;04:45;7
08.01.2018;04:45;05:00;7
08.01.2018;05:00;05:15;7
08.01.2018;05:15;05:30;7
08.01.2018;05:30;05:45;7
08.01.2018;05:45;06:00;7
08.01.2018;06:00;06:15;7
08.01.2018;06:15;06:30;7
08.01.2018;06:30;06:45;7
08.01.2018;06:45;07:00;16
08.01.2018;07:00;07:15;16
08.01.2018;07:15;07:30;16
08.01.2018;07:30;07:45;16
08.01.2018;07:45;08:00;16
08.01.2018;08:00;08:15;16
08.01.2018;08:15;08:30;16
08.01.2018;08:30;08:45;19
08.01.2018;08:45;09:00;28
08.01.2018;09:00;09:15;46
08.01.2018;09:15;09:30;72
08.01.2018;09:30;09:45;101
08.01.2018;09:45;10:00;129
08.01.2018;10:00;10:15;157
08.01.2018;10:15;10:30;189
08.01.2018;10:30;10:45;226
08.01.2018;10:45;11:00;256
08.01.2018;11:00;11:15;282
08.01.2018;11:15;11:30;304
08.01.2018;11:30;11:45;321
08.01.2018;11:45;12:00;335
08.01.2018;12:00;12:15;341
08.01.2018;12:15;12:30;343
08.01.2018;12:30;12:45;344
08.01.2018;12:45;13:00;337
08.01.2018;13:00;13:15;329
08.01.2018;13:15;13:30;314
08.01.2018;13:30;13:45;292
08.01.2018;13:45;14:00;270
08.01.2018;14:00;14:15;233
08.01.2018;14:15;14:30;214
08.01.2018;14:30;14:45;183
08.01.2018;14:45;15:00;151
08.01.2018;15:00;15:15;115
08.01.2018;15:15;15:30;79
08.01.2018;15:30;15:45;35
08.01.2018;15:45;16:00;24
08.01.2018;16:00;16:15;17
08.01.2018;16:15;16:30;16
08.01.2018;16:30;16:45;16
08.01.2018;16:45;17:00;16
08.01.2018;17:00;17:15;16
08.01.2018;17:15;17:30;16
08.01.2018;17:30;17:45;16
08.01.2018;17:45;18:00;16
08.01.2018;18:00;18:15;16
08.01.2018;18:15;18:30;16
08.01.2018;18:30;18:45;16
08.01.2018;18:45;19:00;16
08.01.2018;19:00;19:15;7
08.01.2018;19:15;19:30;7
08.01.2018;19:30;19:45;7
08.01.2018;19:45;20:00;7
08.01.2018;20:00;20:15;7
08.01.2018;20:15;20:30;7
08.01.2018;20:30;20:45;7
08.01.2018;20:45;21:00;7
08.01.2018;21:00;21:15;7
08.01.2018;21:15;21:30;7
08.01.2018;21:30;21:45;7
08.01.2018;21:45;22:00;7
08.01.2018;22:00;22:15;7
08.01.2018;22:15;22:30;7
08.01.2018;22:30;22:45;7
08.01.2018;22:45;23:00;7
08.01.2018;23:00;23:15;7
08.01.2018;23:15;23:30;7
08.01.2018;23:30;23:45;7
09.01.2018;23:45;00:00;7
09.01.2018;00:00;00:15;7
09.01.2018;00:15;00:30;7
09.01.2018;00:30;00:45;7
09.01.2018;00:45;01:00;7
09.01.2018;01:00;01:15;7
09.01.2018;01:15;01:30;7
09.01.2018;01:30;01:45;7
09.01.2018;01:45;02:00;7
09.01.2018;02:00;02:15;7
09.01.2018;02:15;02:30;7
09.01.2018;02:30;02:45;7
09.01.2018;02:45;03:00;7
09.01.2018;03:00;03:15;7
09.01.2018;03:15;03:30;7
09.01.2018;03:30;03:45;7
09.01.2018;03:45;04:00;7
09.01.2018;04:00;04:15;7
09.01.2018;04:15;04:30;7
09.01.2018;04:30;04:45;7
09.01.2018;04:45;05:00;7
09.01.2018;05:00;05:15;7
09.01.2018;05:15;05:30;7
09.01.2018;05:30;05:45;7
09.01.2018;05:45;06:00;7
09.01.2018;06:00;06:15;7
09.01.2018;06:15;06:30;7
09.01.2018;06:30;06:45;7
09.01.2018;06:45;07:00;16
09.01.2018;07:00;07:15;16
09.01.2018;07:15;07:30;16
09.01.2018;07:30;07:45;16
09.01.2018;07:45;08:00;16
09.01.2018;08:00;08:15;16
09.01.2018;08:15;08:30;16
09.01.2018;08:30;08:45;19
09.01.2018;08:45;09:00;25
09.01.2018;09:00;09:15;32
09.01.2018;09:15;09:30;40
09.01.2018;09:30;09:45;45
09.01.2018;09:45;10:00;58
09.01.2018;10:00;10:15;72
09.01.2018;10:15;10:30;72
09.01.2018;10:30;10:45;96
09.01.2018;10:45;11:00;87
09.01.2018;11:00;11:15;79
09.01.2018;11:15;11:30;115
09.01.2018;11:30;11:45;123
09.01.2018;11:45;12:00;132
09.01.2018;12:00;12:15;166
09.01.2018;12:15;12:30;209
09.01.2018;12:30;12:45;237
09.01.2018;12:45;13:00;242
09.01.2018;13:00;13:15;182
09.01.2018;13:15;13:30;138
09.01.2018;13:30;13:45;129
09.01.2018;13:45;14:00;79
09.01.2018;14:00;14:15;57
09.01.2018;14:15;14:30;52
09.01.2018;14:30;14:45;55
09.01.2018;14:45;15:00;46
09.01.2018;15:00;15:15;31
09.01.2018;15:15;15:30;23
09.01.2018;15:30;15:45;18
09.01.2018;15:45;16:00;17
09.01.2018;16:00;16:15;16
09.01.2018;16:15;16:30;16
09.01.2018;16:30;16:45;16
09.01.2018;16:45;17:00;16
09.01.2018;17:00;17:15;16
09.01.2018;17:15;17:30;16
09.01.2018;17:30;17:45;16
09.01.2018;17:45;18:00;16
09.01.2018;18:00;18:15;16
09.01.2018;18:15;18:30;16
09.01.2018;18:30;18:45;16
09.01.2018;18:45;19:00;16
09.01.2018;19:00;19:15;7
09.01.2018;19:15;19:30;7
09.01.2018;19:30;19:45;7
09.01.2018;19:45;20:00;7
09.01.2018;20:00;20:15;7
09.01.2018;20:15;20:30;7
09.01.2018;20:30;20:45;7
09.01.2018;20:45;21:00;7
09.01.2018;21:00;21:15;7
09.01.2018;21:15;21:30;7
09.01.2018;21:30;21:45;7
09.01.2018;21:45;22:00;7
09.01.2018;22:00;22:15;7
09.01.2018;22:15;22:30;7
09.01.2018;22:30;22:45;7
09.01.2018;22:45;23:00;7
09.01.2018;23:00;23:15;7
09.01.2018;23:15;23:30;7
09.01.2018;23:30;23:45;7
10.01.2018;23:45;00:00;7
10.01.2018;00:00;00:15;7
10.01.2018;00:15;00:30;7
10.01.2018;00:30;00:45;7
10.01.2018;00:45;01:00;7
10.01.2018;01:00;01:15;7
10.01.2018;01:15;01:30;7
10.01.2018;01:30;01:45;7
10.01.2018;01:45;02:00;7
10.01.2018;02:00;02:15;7
10.01.2018;02:15;02:30;7
10.01.2018;02:30;02:45;7
10.01.2018;02:45;03:00;7
10.01.2018;03:00;03:15;7
10.01.2018;03:15;03:30;7
10.01.2018;03:30;03:45;7
10.01.2018;03:45;04:00;7
10.01.2018;04:00;04:15;7
10.01.2018;04:15;04:30;7
10.01.2018;04:30;04:45;7
10.01.2018;04:45;05:00;7
10.01.2018;05:00;05:15;7